Location: Casteau
(50.5142°N, 4.0161°E)
Time: 14:25:01
(UTC+00:00)

Cosmos 2034 Rocket - Pass Details

Date: 18 September 2020
Orbit: 957 x 1002 km, 82.9° (Epoch: 23 October)

Event Time Altitude Azimuth Distance (km) Brightness Sun altitude
Rises 18:54:50 0° 164° (SSE) 3,714 6.7 -10.9°
Reaches altitude 10° 18:57:28 10° 158° (SSE) 2,768 6.0 -11.4°
Maximum altitude 19:03:25 44° 89° (E) 1,364 4.4 -12.3°
Drops below altitude 10° 19:09:22 10° 20° (NNE) 2,770 6.4 -13.2°
Sets 19:12:00 0° 14° (NNE) 3,718 7.1 -13.6°
